�N����,����,�~����,�C��,���x,�C��,����,���ϕ���,�ő�u�ԕ���,�ő厞����,���˗�,�I�_���x,�n�����x,�ő啗���N��,DTYPE
"23/04/27","00:10",0.0,8.4,95.6,1009.7,302.8,2.0,4.0,314.1,0.00,7.8,13.5,"00:03:12",1
"23/04/27","00:20",0.0,8.4,95.8,1010.0,304.4,1.6,2.9,307.8,0.00,7.8,13.7,"00:10:08",1
"23/04/27","00:30",0.0,8.1,96.0,1010.2,286.4,1.3,3.3,325.1,0.00,7.5,13.5,"00:25:04",1
"23/04/27","00:40",0.0,8.7,96.2,1010.2,317.0,1.1,2.6,300.3,0.00,8.2,13.4,"00:38:00",1
"23/04/27","00:50",0.0,8.9,96.3,1010.2,302.1,1.2,2.4,295.5,0.00,8.4,13.4,"00:41:28",1
"23/04/27","01:00",0.0,9.2,96.3,1010.4,301.4,1.7,2.9,339.3,0.00,8.7,13.4,"00:53:36",1
"23/04/27","01:10",0.2,9.5,96.5,1010.9,290.1,0.7,1.3,297.1,0.00,9.0,13.3,"01:00:16",1
"23/04/27","01:20",0.0,9.7,96.4,1010.9,262.7,0.8,1.9,323.7,0.00,9.2,13.4,"01:19:38",1
"23/04/27","01:30",0.0,9.6,96.5,1011.2,295.5,1.3,1.7,307.4,0.00,9.1,13.2,"01:26:38",1
"23/04/27","01:40",0.0,9.7,96.6,1011.2,311.6,1.3,2.1,328.1,0.00,9.2,13.2,"01:39:44",1
"23/04/27","01:50",0.0,9.6,96.7,1011.4,316.5,1.6,2.0,312.3,0.00,9.1,13.2,"01:48:50",1
"23/04/27","02:00",0.0,9.5,96.7,1011.4,309.5,1.1,2.0,322.3,0.00,9.0,13.3,"01:57:38",1
"23/04/27","02:10",0.0,9.3,96.9,1011.4,309.5,1.6,2.2,322.0,0.00,8.9,13.2,"02:04:14",1
"23/04/27","02:20",0.0,9.2,97.0,1011.2,311.7,1.6,2.4,327.8,0.00,8.8,13.2,"02:15:02",1
"23/04/27","02:30",0.0,9.2,97.1,1011.2,305.9,1.2,2.2,323.8,0.00,8.8,13.2,"02:29:44",1
"23/04/27","02:40",0.0,9.2,97.2,1011.6,315.9,1.5,2.2,340.6,0.00,8.8,13.0,"02:33:14",1
"23/04/27","02:50",0.0,9.2,97.3,1011.4,335.1,1.5,2.1,323.9,0.00,8.8,13.3,"02:40:30",1
"23/04/27","03:00",0.0,8.9,97.4,1011.6,328.8,1.2,1.9,320.4,0.00,8.6,13.3,"02:53:36",1
"23/04/27","03:10",0.0,8.6,97.4,1011.6,299.0,1.0,1.7,320.2,0.00,8.3,13.2,"03:07:00",1
"23/04/27","03:20",0.0,8.5,97.6,1011.6,314.9,1.5,2.2,313.6,0.00,8.2,13.1,"03:13:38",1
"23/04/27","03:30",0.0,8.3,97.8,1012.1,299.6,1.2,2.0,304.3,0.00,8.0,13.2,"03:22:42",1
"23/04/27","03:40",0.0,8.3,97.8,1012.1,295.6,1.1,1.7,314.4,0.00,8.0,13.2,"03:39:38",1
"23/04/27","03:50",0.0,8.2,97.9,1012.1,297.0,1.3,2.5,314.1,0.00,7.9,13.1,"03:44:06",1
"23/04/27","04:00",0.0,8.1,98.0,1012.3,311.2,1.6,2.0,320.5,0.00,7.8,13.2,"03:52:16",1
"23/04/27","04:10",0.0,8.3,97.6,1012.3,313.5,1.8,2.1,313.9,0.00,8.0,12.9,"04:09:48",1
"23/04/27","04:20",0.0,8.1,98.0,1012.3,312.3,1.8,2.2,310.0,0.00,7.8,13.1,"04:11:44",1
"23/04/27","04:30",0.0,8.2,97.7,1012.8,314.9,2.0,2.2,327.2,0.00,7.9,13.0,"04:21:38",1
"23/04/27","04:40",0.0,8.1,98.2,1013.0,310.7,2.0,2.6,323.4,0.00,7.9,13.0,"04:36:16",1
"23/04/27","04:50",0.0,8.0,97.7,1012.8,318.3,2.0,2.5,317.9,0.00,7.7,13.0,"04:45:34",1
"23/04/27","05:00",0.0,7.8,98.3,1013.0,321.6,1.8,2.6,322.1,0.00,7.6,12.9,"04:51:32",1
"23/04/27","05:10",0.0,7.7,97.9,1013.0,310.6,1.6,2.1,322.0,0.00,7.4,12.9,"05:00:24",1
"23/04/27","05:20",0.0,7.4,98.4,1013.0,315.6,1.3,1.8,337.7,0.00,7.2,12.9,"05:11:44",1
"23/04/27","05:30",0.0,7.5,98.0,1013.5,291.1,1.3,2.0,310.2,0.00,7.2,12.8,"05:24:18",1
"23/04/27","05:40",0.0,7.3,97.9,1013.3,263.1,0.7,1.2,255.4,0.00,7.0,12.7,"05:38:38",1
"23/04/27","05:50",0.0,7.2,98.6,1013.3,183.6,0.5,1.8,263.2,0.00,7.0,12.7,"05:48:04",1
"23/04/27","06:00",0.0,7.5,98.2,1013.5,293.7,2.0,2.6,306.1,0.00,7.3,12.7,"05:59:24",1
"23/04/27","06:10",0.0,7.5,98.2,1013.5,324.5,2.0,2.5,325.6,0.00,7.3,12.7,"06:09:54",1
"23/04/27","06:20",0.0,7.5,98.2,1013.5,297.8,2.0,2.4,313.1,0.00,7.3,12.4,"06:12:08",1
"23/04/27","06:30",0.0,7.5,98.2,1014.0,306.7,2.0,2.9,317.7,0.00,7.3,12.6,"06:26:16",1
"23/04/27","06:40",0.0,7.8,98.3,1014.0,315.4,1.5,2.5,321.6,0.00,7.6,12.7,"06:35:54",1
"23/04/27","06:50",0.0,7.9,98.3,1014.2,317.1,1.6,2.7,324.8,0.01,7.7,12.6,"06:42:32",1
"23/04/27","07:00",0.0,8.3,98.3,1014.7,330.2,1.5,3.4,336.6,0.01,8.1,12.7,"06:52:08",1
"23/04/27","07:10",0.0,9.2,98.3,1014.7,310.4,0.6,1.6,312.9,0.04,9.0,12.6,"07:00:24",1
"23/04/27","07:20",0.0,9.9,98.2,1015.2,348.0,0.6,1.2,334.6,0.06,9.7,12.5,"07:18:40",1
"23/04/27","07:30",0.0,10.6,97.9,1015.6,357.2,0.6,1.3,324.2,0.08,10.3,12.5,"07:20:08",1
"23/04/27","07:40",0.0,10.7,98.5,1015.9,145.3,0.7,1.3,147.8,0.10,10.5,12.2,"07:32:24",1
"23/04/27","07:50",0.0,11.1,97.9,1016.1,139.0,0.5,1.4,151.9,0.12,10.8,12.3,"07:49:44",1
"23/04/27","08:00",0.0,11.6,97.6,1016.4,193.0,0.7,1.6,139.1,0.15,11.3,12.4,"07:51:28",1
"23/04/27","08:10",0.0,11.6,96.9,1016.4,236.8,0.6,1.4,194.8,0.18,11.2,12.4,"08:08:10",1
"23/04/27","08:20",0.0,12.2,97.1,1016.8,162.1,0.7,1.9,152.2,0.23,11.8,12.4,"08:14:16",1
"23/04/27","08:30",0.0,12.6,96.8,1016.6,188.5,0.7,1.4,96.4,0.26,12.1,12.5,"08:20:16",1
"23/04/27","08:40",0.0,13.0,96.0,1017.1,159.4,0.6,1.3,51.6,0.26,12.4,12.6,"08:33:12",1
"23/04/27","08:50",0.0,13.1,95.1,1016.6,324.1,1.1,2.4,323.2,0.25,12.4,12.6,"08:47:44",1
"23/04/27","09:00",0.0,13.3,93.2,1016.8,330.7,2.1,6.5,338.3,0.31,12.3,12.5,"08:59:20",1
"23/04/27","09:10",0.0,13.4,90.8,1017.5,313.6,2.7,5.0,346.6,0.30,12.0,12.6,"09:01:44",1
"23/04/27","09:20",0.0,14.0,86.0,1017.8,323.1,3.0,4.7,337.1,0.34,11.7,12.5,"09:19:36",1
"23/04/27","09:30",0.0,14.1,81.3,1017.1,307.3,2.5,4.9,309.6,0.24,11.0,12.6,"09:28:24",1
"23/04/27","09:40",0.0,14.5,79.6,1017.3,313.9,2.2,4.8,344.3,0.29,11.1,12.7,"09:35:12",1
"23/04/27","09:50",0.0,14.9,77.3,1017.3,300.7,2.6,5.2,346.6,0.33,11.0,12.8,"09:46:16",1
"23/04/27","10:00",0.0,15.4,74.4,1016.8,285.1,2.0,3.9,298.3,0.34,10.9,12.9,"09:51:52",1
"23/04/27","10:10",0.0,15.9,74.0,1016.6,276.6,2.0,3.7,250.3,0.34,11.3,12.9,"10:06:24",1
"23/04/27","10:20",0.0,16.0,70.8,1016.8,339.5,1.5,4.1,345.9,0.28,10.7,13.1,"10:18:16",1
"23/04/27","10:30",0.0,17.3,67.7,1016.4,20.6,1.7,4.1,311.0,0.56,11.3,13.0,"10:20:40",1
"23/04/27","10:40",0.0,17.7,66.0,1016.6,355.8,1.8,4.3,5.0,0.58,11.3,12.9,"10:32:16",1
"23/04/27","10:50",0.0,17.2,63.4,1016.4,347.6,2.0,5.1,341.3,0.46,10.2,13.2,"10:48:32",1
"23/04/27","11:00",0.0,17.6,63.5,1016.4,342.0,1.8,5.6,354.0,0.51,10.6,13.1,"10:51:44",1
"23/04/27","11:10",0.0,18.3,63.0,1016.1,351.9,1.8,4.3,346.9,0.65,11.2,13.2,"11:09:52",1
"23/04/27","11:20",0.0,18.9,61.0,1016.4,329.1,1.7,4.5,350.4,0.70,11.3,13.6,"11:12:56",1
"23/04/27","11:30",0.0,18.2,61.1,1016.4,309.6,1.7,4.8,341.7,0.41,10.6,13.4,"11:27:44",1
"23/04/27","11:40",0.0,17.6,62.8,1015.9,303.8,1.8,4.1,326.6,0.37,10.5,13.5,"11:38:32",1
"23/04/27","11:50",0.0,19.1,63.3,1016.4,311.9,1.3,4.1,327.8,0.66,12.0,13.6,"11:42:08",1
"23/04/27","12:00",0.0,19.6,58.7,1015.9,188.7,1.0,2.7,139.4,0.59,11.3,13.6,"11:51:36",1
"23/04/27","12:10",0.0,18.8,60.0,1015.9,290.9,2.3,4.4,348.1,0.43,10.9,14.0,"12:02:16",1
"23/04/27","12:20",0.0,18.9,60.0,1015.6,209.6,1.3,3.5,247.8,0.46,11.0,14.0,"12:13:20",1
"23/04/27","12:30",0.2,19.5,54.8,1015.2,255.7,1.8,4.3,327.1,0.65,10.2,13.8,"12:29:36",1
"23/04/27","12:40",0.0,20.5,54.9,1015.2,284.3,1.2,5.2,346.5,0.65,11.2,14.1,"12:30:40",1
"23/04/27","12:50",0.0,20.2,52.3,1014.9,52.1,2.0,4.1,138.5,0.66,10.2,14.3,"12:48:00",1
"23/04/27","13:00",0.0,20.4,50.7,1014.9,68.2,1.2,2.9,132.4,0.67,9.9,14.2,"12:52:32",1
"23/04/27","13:10",0.0,20.8,49.8,1014.9,303.6,0.8,2.2,50.9,0.42,10.0,14.5,"13:05:04",1
"23/04/27","13:20",0.0,20.7,54.2,1014.9,240.9,2.0,4.0,239.5,0.61,11.2,14.2,"13:18:00",1
"23/04/27","13:30",0.0,20.3,53.1,1014.7,298.1,2.5,5.1,318.1,0.62,10.5,14.7,"13:25:28",1
"23/04/27","13:40",0.0,20.4,52.5,1014.5,259.7,2.2,5.0,242.2,0.61,10.4,14.6,"13:30:02",1
"23/04/27","13:50",0.0,20.4,52.9,1014.9,270.7,3.1,4.8,235.8,0.60,10.5,14.9,"13:40:16",1
"23/04/27","14:00",0.0,20.8,52.2,1014.5,257.9,2.2,4.9,245.9,0.59,10.7,15.0,"13:58:32",1
"23/04/27","14:10",0.0,20.7,53.1,1014.9,301.4,3.4,6.4,326.5,0.58,10.9,15.2,"14:06:16",1
"23/04/27","14:20",0.0,20.8,51.6,1014.7,266.4,3.1,4.9,246.6,0.57,10.5,15.0,"14:17:36",1
"23/04/27","14:30",0.0,21.2,50.8,1014.5,281.5,2.3,5.2,315.2,0.55,10.7,15.2,"14:25:44",1
"23/04/27","14:40",0.0,21.0,50.6,1013.8,270.3,2.7,5.5,258.0,0.53,10.4,15.3,"14:34:08",1
"23/04/27","14:50",0.0,21.4,49.1,1014.0,285.5,2.6,5.8,341.1,0.52,10.3,15.4,"14:42:24",1
"23/04/27","15:00",0.0,21.4,48.3,1014.2,268.8,2.7,5.2,322.6,0.50,10.1,15.7,"14:54:00",1
"23/04/27","15:10",0.0,21.9,48.4,1013.8,270.0,2.3,5.1,326.1,0.48,10.6,15.7,"15:08:56",1
"23/04/27","15:20",0.0,22.2,45.4,1014.0,273.0,2.0,3.9,240.9,0.46,9.9,15.9,"15:16:08",1
"23/04/27","15:30",0.0,21.8,47.0,1013.5,268.7,2.7,5.1,249.5,0.44,10.0,15.8,"15:22:40",1
"23/04/27","15:40",0.0,21.9,49.2,1014.0,283.3,2.3,5.2,242.3,0.42,10.8,15.6,"15:31:04",1
"23/04/27","15:50",0.0,21.9,47.5,1013.8,299.1,2.5,5.4,348.5,0.40,10.3,15.9,"15:45:28",1
"23/04/27","16:00",0.0,22.0,47.5,1013.5,293.0,2.3,4.1,330.5,0.38,10.4,15.9,"15:57:20",1
"23/04/27","16:10",0.0,22.1,47.4,1013.8,326.2,2.5,5.4,332.4,0.36,10.4,16.0,"16:05:44",1
"23/04/27","16:20",0.0,22.4,45.5,1013.5,299.2,2.0,5.5,332.2,0.33,10.1,16.0,"16:16:24",1
"23/04/27","16:30",0.0,22.3,45.4,1013.3,285.2,2.0,5.0,324.2,0.31,10.0,16.2,"16:25:36",1
"23/04/27","16:40",0.0,22.5,45.8,1013.3,269.1,2.1,4.1,240.6,0.28,10.3,16.2,"16:36:00",1
"23/04/27","16:50",0.0,22.3,44.0,1013.8,292.1,2.3,4.5,336.2,0.26,9.5,16.2,"16:42:16",1
"23/04/27","17:00",0.0,22.4,44.7,1013.8,255.7,1.8,4.0,277.2,0.23,9.8,16.3,"16:58:48",1
"23/04/27","17:10",0.0,22.2,44.6,1014.0,270.7,2.2,5.7,330.3,0.20,9.6,16.5,"17:09:12",1
"23/04/27","17:20",0.0,22.4,45.0,1014.0,282.2,2.0,3.6,316.0,0.18,9.9,16.4,"17:11:28",1
"23/04/27","17:30",0.0,22.5,43.8,1014.0,277.5,1.8,3.9,273.0,0.16,9.6,16.6,"17:29:52",1
"23/04/27","17:40",0.0,22.2,43.5,1014.0,283.7,2.2,4.4,342.7,0.14,9.2,16.5,"17:31:04",1
"23/04/27","17:50",0.0,22.1,45.2,1014.0,282.8,2.1,3.9,305.5,0.11,9.7,16.6,"17:45:44",1
"23/04/27","18:00",0.0,21.9,44.0,1014.0,302.3,2.3,4.8,321.0,0.10,9.1,16.6,"17:55:28",1
"23/04/27","18:10",0.0,21.9,45.1,1014.2,289.5,2.1,3.7,250.0,0.07,9.5,16.5,"18:07:04",1
"23/04/27","18:20",0.0,21.6,45.2,1014.2,307.9,2.2,4.3,309.6,0.05,9.3,16.6,"18:11:52",1
"23/04/27","18:30",0.0,21.4,44.8,1014.2,269.8,2.0,3.4,254.8,0.03,9.0,16.6,"18:28:48",1
"23/04/27","18:40",0.0,21.1,49.1,1014.7,293.3,1.7,2.9,240.0,0.01,10.1,16.5,"18:31:28",1
"23/04/27","18:50",0.0,20.0,54.2,1014.9,322.7,2.0,3.2,342.8,0.00,10.5,16.7,"18:40:24",1
"23/04/27","19:00",0.0,19.2,56.6,1015.2,304.3,1.2,2.5,335.4,0.00,10.4,16.5,"18:50:08",1
"23/04/27","19:10",0.0,18.7,60.3,1015.2,276.8,0.7,1.4,264.2,0.00,10.9,16.7,"19:08:00",1
"23/04/27","19:20",0.0,18.1,63.2,1015.4,323.7,1.7,2.6,321.2,0.00,11.0,16.7,"19:19:04",1
"23/04/27","19:30",0.0,17.4,65.6,1015.4,304.5,2.1,3.3,326.6,0.00,10.9,16.5,"19:23:44",1
"23/04/27","19:40",0.0,16.7,67.8,1015.9,304.2,1.6,3.2,326.6,0.00,10.8,16.3,"19:37:44",1
"23/04/27","19:50",0.0,16.3,69.5,1016.1,313.9,1.5,2.4,300.2,0.00,10.8,16.3,"19:43:08",1
"23/04/27","20:00",0.0,15.9,71.2,1016.4,329.0,1.7,2.7,325.6,0.00,10.7,16.3,"19:53:24",1
"23/04/27","20:10",0.0,15.5,72.9,1016.6,304.4,1.8,2.6,308.9,0.00,10.7,16.4,"20:07:04",1
"23/04/27","20:20",0.0,15.1,74.4,1016.6,284.2,1.6,2.2,267.4,0.00,10.6,16.3,"20:15:44",1
"23/04/27","20:30",0.0,14.9,75.9,1016.6,301.1,2.1,2.9,308.5,0.00,10.7,16.4,"20:26:32",1
"23/04/27","20:40",0.0,14.5,77.2,1016.8,309.7,1.2,1.7,303.1,0.00,10.6,16.5,"20:30:32",1
"23/04/27","20:50",0.0,14.1,78.9,1017.1,325.1,1.5,2.0,317.1,0.00,10.5,16.0,"20:44:48",1
"23/04/27","21:00",0.0,13.9,80.6,1016.8,303.0,1.7,2.9,322.2,0.00,10.7,16.2,"20:50:02",1
"23/04/27","21:10",0.0,13.8,81.7,1017.5,308.8,2.1,2.7,317.9,0.00,10.8,16.1,"21:01:28",1
"23/04/27","21:20",0.0,13.6,82.6,1017.3,286.6,1.6,1.9,290.8,0.00,10.7,16.1,"21:16:04",1
"23/04/27","21:30",0.0,13.5,83.4,1017.8,298.2,1.8,2.4,313.8,0.00,10.8,16.1,"21:29:30",1
"23/04/27","21:40",0.0,13.3,83.8,1017.3,289.8,1.7,2.6,308.9,0.00,10.7,16.1,"21:31:14",1
"23/04/27","21:50",0.0,13.2,84.5,1017.5,294.8,2.0,2.9,308.4,0.00,10.7,15.9,"21:49:28",1
"23/04/27","22:00",0.0,13.0,84.9,1017.8,297.1,1.8,2.5,307.1,0.00,10.6,15.7,"21:51:24",1
"23/04/27","22:10",0.0,12.9,85.5,1017.8,302.4,2.2,3.2,310.9,0.00,10.6,15.8,"22:09:40",1
"23/04/27","22:20",0.0,12.8,85.7,1017.5,290.1,1.7,2.5,306.8,0.00,10.5,15.4,"22:12:24",1
"23/04/27","22:30",0.0,12.4,86.2,1017.8,324.6,2.3,2.7,311.3,0.00,10.2,15.5,"22:24:42",1
"23/04/27","22:40",0.0,11.9,87.0,1017.8,320.1,2.0,2.6,329.2,0.00,9.8,15.7,"22:30:54",1
"23/04/27","22:50",0.0,11.7,88.0,1017.8,312.5,2.0,2.4,315.6,0.00,9.8,15.6,"22:48:00",1
"23/04/27","23:00",0.0,11.8,88.7,1017.5,288.7,2.0,2.1,292.7,0.00,10.0,15.4,"22:50:24",1
"23/04/27","23:10",0.0,11.8,89.0,1017.8,299.2,2.3,3.2,317.5,0.00,10.1,15.3,"23:05:44",1
"23/04/27","23:20",0.0,11.8,89.2,1017.8,311.9,2.1,2.8,316.9,0.00,10.1,15.4,"23:15:26",1
"23/04/27","23:30",0.0,11.5,89.4,1017.3,307.2,1.7,2.2,320.4,0.00,9.9,15.4,"23:21:30",1
"23/04/27","23:40",0.0,11.3,89.7,1017.5,330.4,2.1,2.9,323.4,0.00,9.7,15.3,"23:30:28",1
"23/04/27","23:50",0.0,10.8,89.9,1017.5,299.9,1.3,2.2,334.9,0.00,9.3,15.3,"23:41:04",1
"23/04/27","24:00",0.0,11.0,90.5,1017.8,289.1,1.8,2.4,297.8,0.00,9.5,15.2,"23:56:52",1
